Tracking 20623 objects as of 3-Apr-2020
HD Live streaming from Space Station
objects crossing your sky now

DMSP 5D-2 F11 DEB

Track DMSP 5D-2 F11 DEB now!
10-day predictions


NORAD ID: 28309
Int'l Code: 1991-082W
Perigee: 816.3 km
Apogee: 836.8 km
Inclination: 98.8 °
Period: 101.3 minutes
Semi major axis: 7197 km
RCS: 0.0137 m2 (small)
Launch date: November 28, 1991
Source: United States (US)
Launch site: AIR FORCE WESTERN TEST RANGE (AFWTR)

Note: This is SATELLITE DEBRIS
aabbcc
Your satellite tracking list
Your tracking list is empty




NASA's NSSDC Master Catalog

Two Line Element Set (TLE):
1 28309U 91082W   20094.29287973 +.00000010 +00000-0 +24702-4 0  9994
2 28309 098.7888 098.0069 0014226 312.5082 059.3535 14.21764988827489
Source of the keplerian elements: AFSPC